Location: Berg
(47.2344°N, 9.5296°E)
Time: 17:31:58
(UTC+00:00)

Lacrosse 5 - Pass Details

Date: 24 January 2021
Orbit: 715 x 724 km, 57.0° (Epoch: 28 February)

Event Time Altitude Azimuth Distance (km) Brightness Sun altitude
Rises 17:27:39 0° 305° (NW) 3,123 5.8 -12.8°
Reaches altitude 10° 17:30:06 10° 300° (WNW) 2,200 5.1 -13.2°
Maximum altitude 17:34:56 47° 227° (SW) 943 2.9 -14.0°
Drops below altitude 10° 17:39:46 10° 154° (SSE) 2,190 4.2 -14.8°
Sets 17:42:12 0° 149° (SSE) 3,107 5.0 -15.2°
